This is the latest recevied weather packets stored in our database for station/object K8GLX. If no packets are shown the sender has not sent any weather packets the latest 10 day(s).
| Time | Temp. | Humidity | Pressure | Rain* | Wind** | Luminosity | Snow |
|---|---|---|---|---|---|---|---|
| 1777577539 | 9.44° C | 66% | 1014.3 hPa | 0 mm | - | 673 W/m² | - |
| 1777577233 | 9.44° C | 67% | 1014.3 hPa | 0 mm | - | 667 W/m² | - |
| 1777576938 | 9.44° C | 68% | 1014.2 hPa | 0 mm | - | 677 W/m² | - |
| 1777576634 | 8.89° C | 68% | 1014.4 hPa | 0 mm | - | 686 W/m² | - |
| 1777576338 | 9.44° C | 68% | 1014.4 hPa | 0 mm | - | 706 W/m² | - |
| 1777576032 | 8.89° C | 70% | 1014.3 hPa | 0 mm | - | 724 W/m² | - |
| 1777575738 | 9.44° C | 69% | 1014.2 hPa | 0 mm | - | 767 W/m² | - |
| 1777575433 | 8.89° C | 70% | 1014.3 hPa | 0 mm | - | 552 W/m² | - |
| 1777575138 | 9.44° C | 71% | 1014.3 hPa | 0 mm | - | 651 W/m² | - |
| 1777574835 | 9.44° C | 71% | 1014.4 hPa | 0 mm | - | 715 W/m² | - |
| 1777574667 | 8.89° C | 70% | 1014.4 hPa | 0 mm | - | 464 W/m² | - |
| 1777574232 | 8.89° C | 70% | 1014.5 hPa | 0 mm | - | 438 W/m² | - |
| 1777573938 | 9.44° C | 70% | 1014.5 hPa | 0 mm | - | 635 W/m² | - |
| 1777573632 | 8.89° C | 66% | 1014.5 hPa | 0 mm | - | 660 W/m² | - |
| 1777573338 | 9.44° C | 69% | 1014.4 hPa | 0 mm | - | 723 W/m² | - |
| 1777573033 | 8.33° C | 70% | 1014.5 hPa | 0 mm | - | 731 W/m² | - |
| 1777572738 | 8.89° C | 72% | 1014.6 hPa | 0 mm | - | 538 W/m² | - |
| 1777572433 | 8.89° C | 73% | 1014.5 hPa | 0 mm | - | 717 W/m² | - |
| 1777572265 | 8.89° C | 75% | 1014.4 hPa | 0 mm | - | 672 W/m² | - |
| 1777571833 | 8.33° C | 75% | 1014.3 hPa | 0 mm | - | 517 W/m² | - |
| 1777571539 | 8.33° C | 74% | 1014.4 hPa | 0 mm | - | 682 W/m² | - |
| 1777571233 | 8.89° C | 75% | 1014.1 hPa | 0 mm | - | 487 W/m² | - |
| 1777570939 | 8.33° C | 75% | 1014.4 hPa | 0 mm | - | 496 W/m² | - |
| 1777570633 | 8.89° C | 74% | 1014.5 hPa | 0 mm | - | 596 W/m² | - |
| 1777570339 | 8.33° C | 73% | 1014.4 hPa | 0 mm | - | 847 W/m² | - |
* Rain latest hour (hover to see other rain measurements)
** Current wind speed in m/s (hover to see current wind gust speed)